• In Hungary
  • List of Countries
  • For 7 days
  • Water Temperature
  • Satellite Maps
  • Weather Map
  • News
  • Weather Widgets
  • user-avatar
    Login

    Hourly Weather Sofia

    Today, 12 December, Tuesday

    Time Temperature Precipitation Wind Pressure Humidity
    00:00 +2°C° 0 mm 2 mps 711 mmHg 70%
    01:00 +2°C° 0 mm 2 mps 711 mmHg 71%
    02:00 +2°C° 0 mm 2 mps 710 mmHg 77%
    03:00 +3°C° 0 mm 2 mps 711 mmHg 77%
    04:00 +3°C° 0 mm 2 mps 711 mmHg 78%
    05:00 +3°C° 0 mm 2 mps 711 mmHg 79%
    06:00 +3°C° 0 mm 2 mps 711 mmHg 80%
    07:00 +3°C° 0 mm 2 mps 711 mmHg 80%
    08:00 +5°C° 0 mm 2 mps 710 mmHg 77%
    09:00 +6°C° 0 mm 2 mps 711 mmHg 76%
    10:00 +8°C° 0 mm 2 mps 711 mmHg 75%
    11:00 +9°C° 0 mm 2 mps 712 mmHg 73%
    12:00 +10°C° 0 mm 2 mps 712 mmHg 72%
    13:00 +12°C° 0 mm 2 mps 712 mmHg 72%
    14:00 +13°C° 0 mm 2 mps 711 mmHg 72%
    15:00 +10°C° 0 mm 2 mps 711 mmHg 76%
    16:00 +9°C° 0 mm 2 mps 711 mmHg 80%
    17:00 +7°C° 0 mm 2 mps 711 mmHg 84%
    18:00 +7°C° 0 mm 2 mps 711 mmHg 84%
    19:00 +6°C° 0 mm 2 mps 711 mmHg 84%
    20:00 +6°C° 0 mm 2 mps 712 mmHg 84%
    21:00 +6°C° 0 mm 2 mps 712 mmHg 84%
    22:00 +6°C° 0 mm 2 mps 712 mmHg 85%
    23:00 +5°C° 0 mm 2 mps 712 mmHg 85%

    Tomorrow, 13 December, Wednesday

    Time Temperature Precipitation Wind Pressure Humidity
    00:00 +5°C° 0 mm 2 mps 712 mmHg 85%
    01:00 +5°C° 0 mm 2 mps 712 mmHg 86%
    02:00 +5°C° 0 mm 2 mps 712 mmHg 86%
    03:00 +5°C° 0 mm 2 mps 712 mmHg 86%
    04:00 +6°C° 0 mm 1 mps 712 mmHg 86%
    05:00 +6°C° 0 mm 1 mps 712 mmHg 86%
    06:00 +6°C° 0 mm 1 mps 712 mmHg 86%
    07:00 +6°C° 0 mm 1 mps 712 mmHg 85%
    08:00 +6°C° 0 mm 1 mps 712 mmHg 85%
    09:00 +7°C° 0 mm 1 mps 712 mmHg 81%
    10:00 +9°C° 0 mm 1 mps 712 mmHg 76%
    11:00 +11°C° 0 mm 1 mps 712 mmHg 72%
    12:00 +12°C° 0 mm 1 mps 712 mmHg 70%
    13:00 +13°C° 0 mm 1 mps 711 mmHg 69%
    14:00 +13°C° 0 mm 1 mps 711 mmHg 67%
    15:00 +12°C° 0 mm 1 mps 710 mmHg 70%
    16:00 +11°C° 0 mm 1 mps 710 mmHg 74%
    17:00 +9°C° 0 mm 1 mps 710 mmHg 77%
    18:00 +8°C° 0 mm 2 mps 710 mmHg 77%
    19:00 +8°C° 0 mm 2 mps 710 mmHg 76%
    20:00 +8°C° 0 mm 2 mps 710 mmHg 75%
    21:00 +7°C° 0 mm 2 mps 709 mmHg 75%
    22:00 +7°C° 0 mm 2 mps 709 mmHg 75%
    23:00 +7°C° 0 mm 2 mps 709 mmHg 75%

    Day after tomorrow, 14 December, Thursday

    Time Temperature Precipitation Wind Pressure Humidity
    00:00 +7°C° 0 mm 2 mps 708 mmHg 76%
    01:00 +7°C° 0 mm 2 mps 708 mmHg 77%
    02:00 +8°C° 0 mm 1 mps 708 mmHg 78%
    03:00 +8°C° 0 mm 1 mps 708 mmHg 80%
    04:00 +7°C° 0 mm 1 mps 707 mmHg 82%
    05:00 +7°C° 0 mm 1 mps 707 mmHg 84%
    06:00 +7°C° 0 mm 1 mps 707 mmHg 86%
    07:00 +6°C° 0 mm 1 mps 707 mmHg 87%
    08:00 +6°C° 0 mm 1 mps 708 mmHg 89%
    09:00 +7°C° 0 mm 2 mps 708 mmHg 84%
    10:00 +8°C° 0 mm 2 mps 708 mmHg 79%
    11:00 +10°C° 0 mm 2 mps 708 mmHg 74%
    12:00 +10°C° 0 mm 2 mps 708 mmHg 70%
    13:00 +10°C° 0 mm 2 mps 708 mmHg 66%
    14:00 +12°C° 0 mm 2 mps 707 mmHg 62%
    15:00 +10°C° 0 mm 2 mps 707 mmHg 67%
    16:00 +8°C° 0 mm 2 mps 707 mmHg 73%
    17:00 +8°C° 0 mm 1 mps 707 mmHg 78%
    18:00 +7°C° 0 mm 1 mps 708 mmHg 80%
    19:00 +7°C° 0 mm 1 mps 708 mmHg 81%
    20:00 +6°C° 0 mm 1 mps 708 mmHg 83%
    21:00 +6°C° 0 mm 1 mps 708 mmHg 82%
    22:00 +6°C° 0 mm 1 mps 708 mmHg 81%
    23:00 +5°C° 0 mm 1 mps 708 mmHg 81%

    15 December, Friday

    Time Temperature Precipitation Wind Pressure Humidity
    00:00 +4°C° 0 mm 2 mps 708 mmHg 80%
    01:00 +4°C° 0 mm 2 mps 708 mmHg 79%
    02:00 +4°C° 0 mm 2 mps 708 mmHg 79%
    03:00 +4°C° 0 mm 2 mps 708 mmHg 79%
    04:00 +4°C° 0 mm 2 mps 708 mmHg 78%
    05:00 +4°C° 0 mm 2 mps 707 mmHg 78%
    06:00 +4°C° 0 mm 2 mps 707 mmHg 78%
    07:00 +4°C° 0 mm 2 mps 707 mmHg 77%
    08:00 +4°C° 0 mm 2 mps 707 mmHg 77%
    09:00 +6°C° 0 mm 2 mps 707 mmHg 71%
    10:00 +8°C° 0 mm 2 mps 707 mmHg 66%
    11:00 +10°C° 0 mm 2 mps 707 mmHg 60%
    12:00 +10°C° 0 mm 3 mps 707 mmHg 58%
    13:00 +11°C° 0 mm 3 mps 706 mmHg 56%
    14:00 +12°C° 0 mm 4 mps 706 mmHg 54%
    15:00 +11°C° 0 mm 3 mps 705 mmHg 59%
    16:00 +10°C° 0 mm 3 mps 705 mmHg 64%
    17:00 +8°C° 0 mm 3 mps 705 mmHg 69%
    18:00 +8°C° 0 mm 3 mps 705 mmHg 69%
    19:00 +8°C° 0 mm 3 mps 705 mmHg 70%
    20:00 +7°C° 0 mm 3 mps 705 mmHg 70%
    21:00 +7°C° 0 mm 3 mps 705 mmHg 70%
    22:00 +7°C° 0 mm 3 mps 704 mmHg 71%
    23:00 +7°C° 0 mm 3 mps 704 mmHg 71%

    16 December, Saturday

    Time Temperature Precipitation Wind Pressure Humidity
    00:00 +7°C° 0 mm 3 mps 704 mmHg 71%
    01:00 +7°C° 0 mm 3 mps 704 mmHg 72%
    02:00 +7°C° 0 mm 3 mps 704 mmHg 73%
    03:00 +6°C° 0 mm 4 mps 704 mmHg 74%
    04:00 +6°C° 0 mm 4 mps 704 mmHg 75%
    05:00 +6°C° 0 mm 4 mps 703 mmHg 75%
    06:00 +6°C° 0 mm 4 mps 704 mmHg 77%
    07:00 +7°C° 0 mm 3 mps 704 mmHg 78%
    08:00 +7°C° 0 mm 3 mps 704 mmHg 80%
    09:00 +8°C° 0 mm 3 mps 705 mmHg 77%
    10:00 +9°C° 0 mm 2 mps 705 mmHg 74%
    11:00 +10°C° 0 mm 2 mps 706 mmHg 71%
    12:00 +10°C° 0.1 mm 2 mps 706 mmHg 70%
    13:00 +10°C° 0.1 mm 2 mps 706 mmHg 69%
    14:00 +12°C° 0.1 mm 2 mps 706 mmHg 69%
    15:00 +9°C° 0.4 mm 2 mps 706 mmHg 74%
    16:00 +8°C° 0.4 mm 2 mps 706 mmHg 79%
    17:00 +8°C° 0.4 mm 1 mps 706 mmHg 84%
    18:00 +8°C° 0.8 mm 1 mps 706 mmHg 85%
    19:00 +7°C° 0.8 mm 1 mps 706 mmHg 85%
    20:00 +7°C° 0.8 mm 1 mps 706 mmHg 86%
    21:00 +7°C° 0.9 mm 1 mps 706 mmHg 87%
    22:00 +6°C° 0.9 mm 1 mps 706 mmHg 87%
    23:00 +6°C° 0.9 mm 1 mps 706 mmHg 88%

    17 December, Sunday

    Time Temperature Precipitation Wind Pressure Humidity
    00:00 +6°C° 1.1 mm 1 mps 706 mmHg 89%
    01:00 +4°C° 1.1 mm 2 mps 706 mmHg 90%
    02:00 +4°C° 1.1 mm 2 mps 705 mmHg 90%
    03:00 +4°C° 0.9 mm 2 mps 705 mmHg 91%
    04:00 +4°C° 0.9 mm 2 mps 705 mmHg 92%
    05:00 +3°C° 0.9 mm 2 mps 705 mmHg 92%
    06:00 +3°C° 0.6 mm 2 mps 706 mmHg 92%
    07:00 +3°C° 0.6 mm 2 mps 706 mmHg 92%
    08:00 +3°C° 0.6 mm 2 mps 706 mmHg 92%
    09:00 +3°C° 0.3 mm 2 mps 707 mmHg 91%
    10:00 +3°C° 0.3 mm 2 mps 707 mmHg 90%
    11:00 +3°C° 0.3 mm 2 mps 708 mmHg 89%
    12:00 +3°C° 0.2 mm 2 mps 708 mmHg 89%
    13:00 +4°C° 0.2 mm 2 mps 708 mmHg 89%
    14:00 +4°C° 0.2 mm 2 mps 708 mmHg 88%
    15:00 +3°C° 0.2 mm 2 mps 708 mmHg 89%
    16:00 +3°C° 0.2 mm 2 mps 709 mmHg 90%
    17:00 +3°C° 0.2 mm 2 mps 709 mmHg 91%
    18:00 +2°C° 0.2 mm 2 mps 710 mmHg 92%
    19:00 +2°C° 0.2 mm 2 mps 710 mmHg 92%
    20:00 +2°C° 0.2 mm 2 mps 710 mmHg 93%
    21:00 +2°C° 0.2 mm 2 mps 711 mmHg 92%
    22:00 +2°C° 0.2 mm 2 mps 711 mmHg 92%
    23:00 +1°C° 0.2 mm 2 mps 712 mmHg 92%
    Show more